Weather in Zimniki

Russia / Primorsky Krai     45°28′26″N   134°15′31″E
temp.,
°C
wind,
m/s
gust,
m/s
humid.,
%
clouds,
%
prec.,
mm/h
press.,
hPa
HPBL,
m
12 april, mon
mon1201:00+9ssw4125739 0.0 1022364
04:00+7s3867100 0.0 1022183
07:00+7sse2473100 0.0 1021114
10:00+12ssw51052100 0.0 1020752
13:00+17sw61137100 0.0 10171479
16:00+17ssw61236100 0.0 10141918
19:00+13s6144297 0.0 10121486
22:00+11ssw51347100 0.0 10121102
13 april, tue
tue1301:00+10ssw51349100 0.0 10101043
04:00+9s51147100 0.0 10071100
07:00+5sse31190100 1.6 1005866
10:00+2nw4695100 4.2 1003513
13:00−2nw6984100 1.6 1006905
16:000nw51051100 2.6 10071407
19:00+1nw511455 0.0 10071750
22:00−2wnw5115031 0.0 10091054
14 april, wed
wed1401:00−4w510570 0.0 1010940
04:00−4w410600 0.0 1010818
07:00−4wsw410630 0.0 1011866
10:000w51040100 0.0 10122563
13:00+2w61241100 0.1 10102634
16:00+2w51146100 0.7 10102203
19:00+1nw3868100 0.2 1011646
22:00−1sse1176100 0.3 101326
15 april, thu
thu1501:00−3ssw218465 0.0 101413
04:00−4ssw11855 0.0 101519
07:00−3s11795 0.0 101636
10:00+5s234551 0.0 1016776
13:00+11ssw25305 0.0 10141633
16:00+13sw36267 0.0 10121848
19:00+9ssw2247100 0.0 101212
22:00+5sse2261100 0.0 101322
16 april, fri
fri1601:00+5sse2361100 0.0 101358
04:00+3s2468100 0.0 101296
07:00+3se21272100 0.0 1011319
10:00+7sse61456100 0.0 10101282
13:00+9sse61447100 0.1 10081742
16:00+9s61265100 0.8 10071711
19:00+7ssw4780100 1.9 1009864
22:00+3sse269434 4.1 1011144